Regional Weather Roundup
Issued by NWS Charleston, SC

Home | Current Version | Previous Version | Text Only | Print | Product List | Glossary On
Versions: 1 2 3 4 5 6 7 8 9 10 11 12 13 14 15 16 17 18 19 20 21 22 23 24 25 26 27 28 29 30 31 32 33 34 35 36 37 38 39 40 41 42 43 44 45 46 47 48 49 50
000
ASUS42 KCHS 012227
RWRCHS

REGIONAL WEATHER ROUNDUP
NATIONAL WEATHER SERVICE CHARLESTON SC
600 PM EDT TUE SEP 01 2015

NOTE: "FAIR" INDICATES FEW OR NO CLOUDS BELOW 12,000 FEET WITH NO
SIGNIFICANT WEATHER AND/OR OBSTRUCTIONS TO VISIBILITY.

NOT ALL STATIONS ARE QUALITY CONTROLLED BY THE NATIONAL
WEATHER SERVICE. USE DATA WITH CAUTION...ESPECIALLY
DEWPOINT OBSERVATIONS.

SCZ027-030-031-034>040-042>050-012300-
...SOUTHEAST SOUTH CAROLINA...

CITY           SKY/WX    TMP DP  RH WIND       PRES   REMARKS
N CHARLESTON   PTSUNNY   84  73  69 S7        30.06S HX  90
WATERFRONT PRK   N/A     83  75  76 S7        30.05S HX  90
MOUNT PLEASANT FAIR      82  75  78 S5        30.06F
JOHNS ISLAND   MOCLDY    82  75  78 SE5       30.06F
PINOPOLIS        N/A     95  70  43 VRB2      29.99S HX 101
MONCKS CORNER  FAIR      88  72  58 S6        30.05S HX  94
SUMMERVILLE    FAIR      86  73  66 CALM      30.07R HX  93
BEAUFORT MCAS  CLOUDY    83  75  77 CALM      30.06F HX  90
BEAUFORT ARPT  CLOUDY    82  75  78 CALM      30.06S THUNDER
HILTON HEAD IS MOSUNNY   82  75  78 CALM      30.08S
WALTERBORO     MOCLDY    88  70  55 S7        30.06S HX  92
ALLENDALE      CLOUDY    88  70  55 SE6       30.05S HX  92

...SOUTHERN MIDLANDS AND PEE DEE...

CITY           SKY/WX    TMP DP  RH WIND       PRES   REMARKS
GEORGETOWN     NOT AVBL
KINGSTREE      NOT AVBL
ORANGEBURG     MOSUNNY   89  67  47 SW6       30.05S HX  92
BARNWELL       FAIR      90  70  51 CALM      30.06S HX  95
AIKEN          FAIR      84  64  51 S5        30.10S
MANNING        FAIR      88  64  45 S3        30.05S
COLUMBIA       PTSUNNY   91  64  40 VRB3      30.04S HX  92
SUMTER         MOSUNNY   89  67  48 S7        30.03S HX  92
FLORENCE       MOSUNNY   89  69  51 SW3       30.04F HX  93
MYRTLE BEACH   MOSUNNY   84  72  65 S13       30.08S
N MYRTLE BEACH MOSUNNY   84  74  71 S9        30.06S HX  91

$$

GAZ063-065-086>088-099>101-113>116-118-119-134>141-150-012300-
...SOUTHEAST GEORGIA...

CITY           SKY/WX    TMP DP  RH WIND       PRES   REMARKS
SAVANNAH ARPT  CLOUDY    84  71  65 E8        30.06S
HUNTER AAF     PTSUNNY   83  79  87 E6        30.04S HX  93
FORT STEWART   CLOUDY    82  74  79 NE3       30.04S
STATESBORO     CLOUDY    86  75  69 CALM      30.07R HX  95
SYLVANIA       MOCLDY    87  75  68 CALM      30.07R HX  96
CLAXTON        NOT AVBL

...CSRA...CENTRAL AND FAR SOUTHEAST GEORGIA...

CITY           SKY/WX    TMP DP  RH WIND       PRES   REMARKS
THOMSON        MOSUNNY   88  73  62 NW3       30.12R HX  95
AUGUSTA-BUSH   SUNNY     89  68  49 VRB3      30.05S HX  93
AUGUSTA-DANIEL MOSUNNY   88  67  49 S3        30.07S HX  91
SWAINSBORO     FAIR      90  61  37 CALM      30.07S
VIDALIA        CLOUDY    82  73  74 S3        30.07S
EASTMAN        CLOUDY    90  68  49 CALM      30.09R HX  93
HAZLEHURST     CLOUDY    84  76  76 CALM      30.06S HX  92
ALMA           CLOUDY    83  74  74 CALM      30.06S
WAYCROSS       CLOUDY    82  80  94 E3        30.06F HX  93
JESUP          FAIR      84  79  84 SE5       30.06F HX  96
BAXLEY         CLOUDY    84  75  74 CALM      30.06F HX  92
BRUNSWICK      CLOUDY    81  75  83 NE3       30.06F
SAINT SIMONS   PTSUNNY   81  74  79 E7        30.06R

$$

SCZ027-028-034-036>038-045-046-048>050-GAZ119-141-012300-
...LAKE AND SUPPLEMENTAL COASTAL OBSERVATIONS...

STATION/POSITION TIME  TEMP    WIND        PRES    WAVE   SWELL
                       AIR SEA DIR/SP/G            HT/PER HT/PER/DIR
                 (UTC) (F)     (DEG/KT/KT) (MB)    (FT/S) (FT/S/D)
UPR LAKE MARION  NOT AVBL
WINYAH BAY       2145   84     170/  8     1017.0
LAKE MURRAY      2200   88     230/  2/  3 1016.9S
ACE BASIN NERRS  NOT AVBL
FORT PULASKI     2200   82 83   90/  7/  9 1018.6S
SAPELO ISLAND    2200   82      70/  4     1018.0S

$$

ANZ835-935-AMZ111-154-330-350-352-354-370-450-454-472-012300-
...C-MAN AND BUOY OBSERVATIONS...

STATION/POSITION TIME  TEMP    WIND        PRES    WAVE   SWELL
                       AIR SEA DIR/SP/G            HT/PER HT/PER/DIR
                 (UTC) (F)     (DEG/KT/KT) (MB)    (FT/S) (FT/S/D)
BUOY 41004       2150   82 83   90/  6/  6 1018.1F   2/ 7   2/ 7
BUOY 41008       2150   81 84   70/  8/  8 1018.1F   2/ 8   2/110/ 8
FOLLY BEACH CMAN 2200   82     140/  9/ 10 1018.0F
CAPERS NEARSHORE 2108   82     160/ 10/ 12 1018.6F
FRIPP NEARSHORE  2100   85     120/  6/  8 1018.1F


STATION/POSITION TIME  TEMP    WIND        PRES    WAVE   SWELL
                       AIR SEA DIR/SP/G            HT/PER HT/PER/DIR
                 (UTC) (F)     (DEG/KT/KT) (MB)    (FT/S) (FT/S/D)
5E ST. MARYS GA  2121      86                N/A     2/ 8
FRYING PAN BUOY  2150   81 83  190/  4/  6 1018.5F   2/ 9   2/110/ 9
BUOY 41025       2150   80 84   10/  8/  8 1017.2R   2/ 8   2/110/ 8
CAPE LOOKOUT NC  2200   81     230/  6/  9 1017.0R
BUOY 41002       2150   84 85  240/  6/  8 1018.0S   3/ 6   3/250/ 6
BUOY 41010       2120   86 87  240/  2/  4 1018.5F
ST AUGUSTINE FL  2200   83 87  160/ 10/ 11 1017.9F


$$


USA.gov is the U.S. government's official web portal to all federal, state and local government web resources and services.